Location: Narrabri
(30.3170°S, 149.7830°E)
Time: 05:37:55
(UTC+10:00)

ISS - Visible Passes

Search period start: 20 July 2018 00:00
Search period end: 30 July 2018 00:00
Orbit: 402 x 408 km, 51.6° (Epoch: 20 July)

Date Brightness Start Highest point End Pass type
(mag) Time Alt. Az. Time Alt. Az. Time Alt. Az.
24 Jul -0.7 05:50:14 10° N 05:52:30 17° NE 05:54:47 10° E visible
26 Jul -3.0 05:41:16 10° NNW 05:44:29 53° NE 05:47:45 10° SE visible
27 Jul -1.5 04:51:56 22° NE 04:52:26 23° NE 04:55:08 10° ESE visible
28 Jul -3.5 05:35:59 40° WSW 05:36:34 45° SW 05:39:48 10° SSE visible
29 Jul -1.1 04:46:51 17° SE 04:46:51 17° SE 04:47:43 10° SE visible
29 Jul -1.5 06:20:29 10° SW 06:21:13 11° SSW 06:21:57 10° SSW visible
